"2016-03-26 00:00:00",1490331,4.519,171.5,7.933,1.326,5.361,100.7462,1.203,2.414,59.67,0,109.8,13.31,1.96,133.5
"2016-03-26 00:00:30",1490332,5.046,175.4,10.37,1.464,6.54,100.7394,1.186,2.499,60.36,0,109.8,13.31,1.94,137.4
"2016-03-26 00:01:00",1490333,4.833,177.6,7.657,1.425,6.845,100.7267,1.154,2.485,60.61,0,109.8,13.31,1.91,139.6
"2016-03-26 00:01:30",1490334,5.184,177.1,7.029,1.351,7.1,100.7134,1.12,2.478,60.74,0,109.8,13.31,1.88,139.1
"2016-03-26 00:02:00",1490335,5.437,181.6,8.5,1.312,6.339,100.7126,1.118,2.407,60.84,0,109.8,13.31,1.87,143.6
"2016-03-26 00:02:30",1490336,3.826,172.2,4.594,0.757,3.724,100.7126,1.118,2.255,60.91,0,109.8,13.31,1.87,134.2
"2016-03-26 00:03:00",1490337,4.572,172.6,7.133,1.418,6.558,100.7106,1.113,2.407,60.91,0,109.8,13.31,1.87,134.6
"2016-03-26 00:03:30",1490338,4.86,175.7,8.22,1.402,7.291,100.6993,1.084,2.419,60.85,0,109.8,13.31,1.84,137.7
"2016-03-26 00:04:00",1490339,4.597,175.8,7.164,1.351,6.579,100.6931,1.068,2.351,60.99,0,109.8,13.31,1.82,137.8
"2016-03-26 00:04:30",1490340,4.427,172.2,6.711,1.41,6.305,100.6803,1.035,2.364,61.22,0,109.8,13.31,1.79,134.2
"2016-03-26 00:05:00",1490341,4.384,173.9,6.222,1.324,6.263,100.6787,1.031,2.305,61.13,0,109.8,13.31,1.79,135.9
"2016-03-26 00:05:30",1490342,3.575,156.9,5.439,1.194,4.614,100.6787,1.031,2.18,60.73,0,109.8,13.31,1.79,118.9
"2016-03-26 00:06:00",1490343,4.26,158.4,8.07,1.328,6.091,100.6787,1.031,2.341,60.33,0,109.8,13.31,1.79,120.4
"2016-03-26 00:06:30",1490344,5.051,160.8,7.014,1.349,7.088,100.6787,1.031,2.34,59.88,0,109.8,13.31,1.79,122.8
"2016-03-26 00:07:00",1490345,4.333,156,6.591,1.35,6.816,100.6761,1.025,2.281,59.59,0,109.8,13.31,1.78,118.0
"2016-03-26 00:07:30",1490346,4.542,158.5,10.32,1.425,6.552,100.669,1.007,2.275,59.24,0,109.8,13.31,1.76,120.5
"2016-03-26 00:08:00",1490347,4.336,153.7,9.54,1.369,5.625,100.6676,1.003,2.185,58.95,0,109.8,13.31,1.76,115.7
"2016-03-26 00:08:30",1490348,4.156,163,7.931,1.241,5.236,100.6642,0.994,2.174,59,0,109.8,13.31,1.75,125.0
"2016-03-26 00:09:00",1490349,4.716,167.8,6.796,1.306,6.644,100.6631,0.991,2.273,59.43,0,109.8,13.31,1.75,129.8
"2016-03-26 00:09:30",1490350,4.88,167.5,10.15,1.444,7.251,100.6631,0.991,2.229,59.48,0,109.8,13.31,1.75,129.5
"2016-03-26 00:10:00",1490351,4.602,159.8,8.12,1.428,7.257,100.6631,0.991,2.337,59.69,0,109.8,13.32,1.75,121.8
"2016-03-26 00:10:30",1490352,3.979,162.4,6.492,1.269,5.754,100.6626,0.99,2.203,59.64,0,109.8,13.31,1.75,124.4
"2016-03-26 00:11:00",1490353,3.748,156.8,4.914,1.154,5.288,100.6634,0.992,2.138,59.41,0,109.8,13.31,1.75,118.8
"2016-03-26 00:11:30",1490354,4.077,162.4,8.37,1.334,5.755,100.6611,0.986,2.154,59.04,0,109.8,13.31,1.74,124.4
"2016-03-26 00:12:00",1490355,4.057,161.9,7.951,1.303,6.668,100.662,0.989,2.294,59,0,109.8,13.31,1.74,123.9
"2016-03-26 00:12:30",1490356,4.524,154.1,7.849,1.354,6.988,100.6668,1.001,2.254,58.57,0,109.8,13.31,1.76,116.1
"2016-03-26 00:13:00",1490357,4.401,151.1,8.2,1.45,6.749,100.6697,1.008,2.3,58.14,0,109.8,13.31,1.76,113.1
"2016-03-26 00:13:30",1490358,4.712,148.7,7.481,1.377,6.66,100.6731,1.017,2.19,57.59,0,109.8,13.31,1.77,110.7
"2016-03-26 00:14:00",1490359,3.254,145.7,6.157,0.936,4.851,100.6708,1.011,2.212,57.38,0,109.8,13.31,1.77,107.7
"2016-03-26 00:14:30",1490360,4.469,150.6,7.472,1.311,6.45,100.6739,1.019,2.203,57.36,0,109.8,13.31,1.77,112.6
"2016-03-26 00:15:00",1490361,4.513,151.5,10.77,1.416,6.589,100.6756,1.023,2.28,57.58,0,109.8,13.31,1.78,113.5
"2016-03-26 00:15:30",1490362,4.49,161.6,7.041,1.376,7.372,100.6807,1.036,2.208,57.66,0,109.8,13.31,1.79,123.6
"2016-03-26 00:16:00",1490363,4.475,162.5,7.842,1.31,7.124,100.6827,1.041,2.318,57.87,0,109.8,13.31,1.80,124.5
"2016-03-26 00:16:30",1490364,4.303,157.3,8.03,1.325,5.938,100.6873,1.053,2.186,57.88,0,109.8,13.32,1.81,119.3
"2016-03-26 00:17:00",1490365,3.651,161.2,5.811,0.706,4.142,100.6878,1.054,2.121,58.08,0,109.8,13.32,1.81,123.2
"2016-03-26 00:17:30",1490366,4.372,162.6,7.543,1.35,6.048,100.6907,1.062,2.294,58.28,0,109.8,13.32,1.82,124.6
"2016-03-26 00:18:00",1490367,5.111,164.4,7.094,1.348,7.553,100.6946,1.072,2.326,58.4,0,109.8,13.32,1.83,126.4
"2016-03-26 00:18:30",1490368,4.42,161.2,6.192,1.338,6.386,100.698,1.08,2.28,58.46,0,109.8,13.32,1.84,123.2
"2016-03-26 00:19:00",1490369,4.693,163.7,6.199,1.371,6.638,100.6986,1.082,2.301,58.36,0,109.8,13.32,1.84,125.7
"2016-03-26 00:19:30",1490370,4.317,158.9,9.18,1.272,5.86,100.7017,1.09,2.189,58.03,0,109.8,13.32,1.85,120.9
"2016-03-26 00:20:00",1490371,3.802,156.4,5.86,0.916,4.83,100.7031,1.093,2.191,57.75,0,109.8,13.32,1.85,118.4
"2016-03-26 00:20:30",1490372,4.188,160.4,7.637,1.317,6.49,100.7029,1.093,2.297,57.72,0,109.8,13.33,1.85,122.4
"2016-03-26 00:21:00",1490373,4.75,171.4,8.43,1.399,7.673,100.7048,1.098,2.37,57.67,0,109.8,13.33,1.85,133.4
"2016-03-26 00:21:30",1490374,4.694,170.6,9.52,1.377,7.348,100.7043,1.096,2.238,57.58,0,109.8,13.33,1.85,132.6
"2016-03-26 00:22:00",1490375,4.295,175.2,7.949,1.358,6.81,100.7051,1.099,2.23,57.7,0,109.8,13.33,1.85,137.2
"2016-03-26 00:22:30",1490376,3.424,173.9,6.066,1.196,5.247,100.7051,1.099,2.194,57.81,0,109.8,13.33,1.85,135.9
"2016-03-26 00:23:00",1490377,3.594,179.5,7.063,1.187,5.18,100.7046,1.097,2.215,57.83,0,109.8,13.33,1.85,141.5
"2016-03-26 00:23:30",1490378,3.628,176,6.882,1.343,6.632,100.7057,1.1,2.335,58.13,0,109.8,13.33,1.86,138.0
"2016-03-26 00:24:00",1490379,4.356,178.2,7.72,1.361,7.63,100.7071,1.104,2.348,58.1,0,109.8,13.33,1.86,140.2
"2016-03-26 00:24:30",1490380,4.028,182.3,6.49,1.355,6.588,100.708,1.106,2.276,58.05,0,109.8,13.33,1.86,144.3
"2016-03-26 00:25:00",1490381,3.999,182.4,6.864,1.415,6.526,100.7085,1.107,2.254,58.04,0,109.8,13.33,1.86,144.4
"2016-03-26 00:25:30",1490382,3.393,172.7,5.512,1.096,5.083,100.7097,1.11,2.179,57.92,0,109.8,13.33,1.87,134.7
"2016-03-26 00:26:00",1490383,3.121,170.8,3.539,0.816,4.506,100.7111,1.114,2.195,57.94,0,109.8,13.33,1.87,132.8
"2016-03-26 00:26:30",1490384,3.604,172.4,6.75,1.397,6.351,100.7097,1.11,2.264,58.02,0,109.8,13.33,1.87,134.4
"2016-03-26 00:27:00",1490385,4.12,172.9,7.006,1.352,7.059,100.7114,1.115,2.298,58.08,0,109.8,13.33,1.87,134.9
"2016-03-26 00:27:30",1490386,3.894,173.7,7.61,1.325,7.376,100.7117,1.115,2.363,58.1,0,109.8,13.33,1.87,135.7
"2016-03-26 00:28:00",1490387,3.607,168.6,8.64,1.338,6.666,100.7128,1.118,2.329,58.02,0,109.8,13.33,1.87,130.6
"2016-03-26 00:28:30",1490388,3.04,166.6,5.298,0.852,4.44,100.7123,1.117,2.139,57.83,0,109.8,13.33,1.87,128.6
"2016-03-26 00:29:00",1490389,3.382,166.6,3.725,1.211,4.982,100.7125,1.117,2.196,57.87,0,109.8,13.32,1.87,128.6
"2016-03-26 00:29:30",1490390,4.138,166.9,9.63,1.31,6.058,100.7125,1.117,2.296,57.94,0,109.8,13.32,1.87,128.9
"2016-03-26 00:30:00",1490391,4.677,167.7,8.12,1.362,7.129,100.7128,1.118,2.333,58.07,0,109.8,13.32,1.87,129.7
"2016-03-26 00:30:30",1490392,4.599,162.7,6.916,1.379,6.784,100.7125,1.117,2.289,58.01,0,109.8,13.32,1.87,124.7
"2016-03-26 00:31:00",1490393,4.421,154.9,7.035,1.421,6.241,100.7125,1.117,2.302,58.03,0,109.8,13.32,1.87,116.9
"2016-03-26 00:31:30",1490394,3.436,154.1,7.823,0.953,4.482,100.7128,1.118,2.149,57.88,0,109.8,13.32,1.87,116.1
"2016-03-26 00:32:00",1490395,3.6,151.2,6.838,0.969,4.206,100.7128,1.118,2.163,57.93,0,109.8,13.33,1.87,113.2
"2016-03-26 00:32:30",1490396,4.225,157.4,9.43,1.263,5.887,100.7134,1.12,2.289,58.17,0,109.8,13.33,1.88,119.4
"2016-03-26 00:33:00",1490397,5.103,156.4,8.61,1.28,7.499,100.725,1.149,2.437,58.38,0,109.8,13.33,1.91,118.4
"2016-03-26 00:33:30",1490398,4.565,158.6,8.03,1.43,6.615,100.7301,1.162,2.287,58.27,0,109.8,13.33,1.92,120.6
"2016-03-26 00:34:00",1490399,4.009,156.2,6.221,1.417,6.328,100.7389,1.185,2.374,58.29,0,109.8,13.33,1.94,118.2
"2016-03-26 00:34:30",1490400,3.401,153.5,7.072,0.993,4.375,100.7468,1.205,2.188,58.1,0,109.8,13.33,1.96,115.5
"2016-03-26 00:35:00",1490401,4.029,155.5,6.79,1.305,4.811,100.7459,1.203,2.254,58.15,0,109.8,13.33,1.96,117.5
"2016-03-26 00:35:30",1490402,4.865,158.5,8.1,1.43,6.907,100.7499,1.213,2.456,58.37,0,109.8,13.33,1.97,120.5
"2016-03-26 00:36:00",1490403,4.903,155.7,7.973,1.376,7.199,100.7637,1.248,2.425,58.37,0,109.8,13.33,2.00,117.7
"2016-03-26 00:36:30",1490404,4.957,159.9,8.26,1.351,6.929,100.7799,1.289,2.415,58.45,0,109.8,13.33,2.05,121.9
"2016-03-26 00:37:00",1490405,4.709,157,8.39,1.386,6.011,100.7796,1.288,2.434,58.55,0,109.8,13.33,2.05,119.0
"2016-03-26 00:37:30",1490406,4.019,155.7,6.441,1.329,5.389,100.7852,1.303,2.341,58.47,0,109.8,13.33,2.06,117.7
"2016-03-26 00:38:00",1490407,4.324,154.6,7.664,1.294,5.215,100.7968,1.332,2.386,58.55,0,109.8,13.33,2.09,116.6
"2016-03-26 00:38:30",1490408,4.862,151.2,7.337,1.401,6.505,100.8014,1.344,2.497,58.59,0,109.8,13.32,2.10,113.2
"2016-03-26 00:39:00",1490409,5.102,157.3,7.003,1.352,7.379,100.8118,1.371,2.57,58.59,0,109.8,13.32,2.13,119.3
"2016-03-26 00:39:30",1490410,5.132,157.3,7.531,1.335,7.719,100.8138,1.376,2.578,58.56,0,109.8,13.32,2.13,119.3
"2016-03-26 00:40:00",1490411,4.992,164.8,7.384,1.425,7.007,100.8141,1.377,2.535,58.47,0,109.8,13.32,2.13,126.8
"2016-03-26 00:40:30",1490412,3.914,152.5,6.751,1.17,5.303,100.8147,1.378,2.439,58.41,0,109.8,13.32,2.13,114.5
"2016-03-26 00:41:00",1490413,4.452,153.1,7.142,1.37,5.158,100.8147,1.378,2.496,58.56,0,109.8,13.32,2.13,115.1
"2016-03-26 00:41:30",1490414,5.046,165.7,9.64,1.336,7.554,100.8147,1.378,2.598,58.76,0,109.8,13.32,2.13,127.7
"2016-03-26 00:42:00",1490415,5.266,163.9,7.593,1.369,7.244,100.8147,1.378,2.605,58.85,0,109.8,13.32,2.13,125.9
"2016-03-26 00:42:30",1490416,5.294,163.7,7.425,1.245,7.579,100.8147,1.378,2.631,58.93,0,109.8,13.32,2.13,125.7
"2016-03-26 00:43:00",1490417,4.841,166.5,7.215,1.244,6.916,100.8147,1.378,2.573,58.86,0,109.8,13.32,2.13,128.5
"2016-03-26 00:43:30",1490418,4.441,149,9.82,1.394,5.171,100.8147,1.378,2.469,58.86,0,109.8,13.32,2.13,111.0
"2016-03-26 00:44:00",1490419,4.834,152.1,9.2,1.257,6.448,100.8141,1.377,2.547,59.04,0,109.8,13.32,2.13,114.1
"2016-03-26 00:44:30",1490420,4.596,163.6,8.4,1.461,6.377,100.8147,1.378,2.585,59.13,0,109.8,13.32,2.13,125.6
"2016-03-26 00:45:00",1490421,5.777,168.8,6.528,1.275,7.999,100.8144,1.377,2.62,59.39,0,109.8,13.32,2.13,130.8
"2016-03-26 00:45:30",1490422,4.963,162.3,8.29,1.356,7.555,100.8039,1.351,2.612,59.41,0,109.8,13.32,2.11,124.3
"2016-03-26 00:46:00",1490423,5.081,170.4,6.078,1.41,6.662,100.7974,1.334,2.56,59.42,0,109.8,13.32,2.09,132.4
"2016-03-26 00:46:30",1490424,4.309,172,8.79,1.258,5.593,100.7895,1.314,2.429,59.37,0,109.8,13.32,2.07,134.0
"2016-03-26 00:47:00",1490425,4.307,177.4,6.847,1.19,5.336,100.7807,1.291,2.471,59.49,0,109.8,13.32,2.05,139.4
"2016-03-26 00:47:30",1490426,5.541,188,6.527,1.299,7.486,100.7807,1.291,2.577,59.86,0,109.8,13.32,2.05,150.0
"2016-03-26 00:48:00",1490427,5.062,184.7,6.975,1.366,6.772,100.7793,1.288,2.486,59.97,0,109.8,13.32,2.04,146.7
"2016-03-26 00:48:30",1490428,5.575,190,6.891,1.323,7.625,100.7652,1.252,2.574,60.15,0,109.8,13.32,2.01,152.0
"2016-03-26 00:49:00",1490429,4.76,189.1,7.032,1.332,6.395,100.7507,1.215,2.487,60.21,0,109.8,13.32,1.97,151.1
"2016-03-26 00:49:30",1490430,3.713,187.6,3.311,0.514,3.991,100.7468,1.205,2.343,60.22,0,109.8,13.32,1.96,149.6
"2016-03-26 00:50:00",1490431,4.622,179.3,17.8,1.501,6.329,100.7468,1.205,2.42,60.38,0,109.8,13.33,1.96,141.3
"2016-03-26 00:50:30",1490432,4.896,189.1,6.115,1.491,6.886,100.7465,1.204,2.474,60.4,0,109.8,13.33,1.96,151.1
"2016-03-26 00:51:00",1490433,5.202,189,6.671,1.39,7.452,100.738,1.182,2.441,60.43,0,109.8,13.33,1.94,151.0
"2016-03-26 00:51:30",1490434,5.646,190.9,6.43,1.282,7.535,100.7292,1.16,2.445,60.54,0,109.8,13.33,1.92,152.9
"2016-03-26 00:52:00",1490435,4.445,185,6.362,1.187,5.348,100.7165,1.128,2.329,60.57,0,109.8,13.33,1.88,147.0
"2016-03-26 00:52:30",1490436,4.479,183.3,5.726,1.161,4.91,100.7128,1.118,2.314,60.65,0,109.8,13.33,1.87,145.3
"2016-03-26 00:53:00",1490437,4.877,188.4,6.475,1.403,6.446,100.7128,1.118,2.373,60.78,0,109.8,13.33,1.87,150.4
"2016-03-26 00:53:30",1490438,5.19,193.7,7.217,1.265,7.482,100.7108,1.113,2.378,60.86,0,109.8,13.33,1.87,155.7
"2016-03-26 00:54:00",1490439,5.08,184.5,7.703,1.375,7.353,100.7001,1.086,2.37,60.93,0,109.8,13.33,1.84,146.5
"2016-03-26 00:54:30",1490440,5.145,183.9,7.44,1.403,6.723,100.6882,1.055,2.384,60.9,0,109.8,13.33,1.81,145.9
"2016-03-26 00:55:00",1490441,4.634,178.2,7.453,1.244,5.771,100.6792,1.032,2.303,60.86,0,109.8,13.33,1.79,140.2
"2016-03-26 00:55:30",1490442,5.142,174.5,7.587,1.327,6.307,100.6789,1.032,2.315,60.9,0,109.8,13.33,1.79,136.5
"2016-03-26 00:56:00",1490443,3.85,168.3,11.47,1.307,6.346,100.6715,1.013,2.321,60.97,0,109.8,13.33,1.77,130.3
"2016-03-26 00:56:30",1490444,4.69,183.2,7.711,1.366,6.701,100.6596,0.983,2.3,60.99,0,109.8,13.33,1.74,145.2
"2016-03-26 00:57:00",1490445,5.04,181.7,8.13,1.336,6.88,100.6472,0.951,2.256,61.14,0,109.8,13.33,1.71,143.7
"2016-03-26 00:57:30",1490446,4.499,183.5,5.976,1.282,5.799,100.6449,0.945,2.259,61.23,0,109.8,13.33,1.70,145.5
"2016-03-26 00:58:00",1490447,4.347,175.6,8.1,1.411,4.935,100.6447,0.944,2.067,61.14,0,109.8,13.33,1.70,137.6
"2016-03-26 00:58:30",1490448,4.746,174,6.68,1.032,5.117,100.6384,0.928,2.18,61.31,0,109.8,13.33,1.68,136.0
"2016-03-26 00:59:00",1490449,6.149,172,11,1.216,7.379,100.6234,0.89,2.257,61.56,0,109.8,13.33,1.65,134.0
"2016-03-26 00:59:30",1490450,5.745,156,9.1,1.36,7.19,100.6124,0.862,2.238,61.61,0,109.8,13.34,1.62,118.0
"2016-03-26 01:00:00",1490451,5.137,167.5,8.55,1.345,7.524,100.6153,0.869,2.206,61.65,0,109.8,13.33,1.62,129.5
"2016-03-26 01:00:30",1490452,5.5,169.6,10.65,1.436,6.463,100.6164,0.872,2.173,61.75,0,109.8,13.33,1.63,131.6
"2016-03-26 01:01:00",1490453,4.266,170.3,5.06,0.751,3.908,100.6153,0.869,1.979,61.71,0,109.8,13.33,1.62,132.3
"2016-03-26 01:01:30",1490454,5.966,179.3,7.736,1.393,6.265,100.6062,0.846,2.126,62.07,0,109.8,13.33,1.60,141.3
"2016-03-26 01:02:00",1490455,6.686,181.3,7.066,1.308,7.512,100.6009,0.833,2.15,62.31,0,109.8,13.33,1.59,143.3
"2016-03-26 01:02:30",1490456,6.445,166.3,8.73,1.331,7.44,100.5938,0.815,2.152,62.44,0,109.8,13.33,1.57,128.3
"2016-03-26 01:03:00",1490457,6.493,166.6,7.673,1.297,7.354,100.5896,0.804,2.136,62.46,0,109.8,13.33,1.56,128.6
"2016-03-26 01:03:30",1490458,5.714,169.2,6.488,1.545,6.897,100.5907,0.807,2.16,62.55,0,109.8,13.33,1.56,131.2
"2016-03-26 01:04:00",1490459,6.211,159.1,7.208,1.3,5.627,100.5819,0.784,1.951,62.49,0,109.8,13.33,1.54,121.1
"2016-03-26 01:04:30",1490460,5.911,164.2,8.95,1.398,5.882,100.5752,0.767,2.034,62.79,0,109.7,13.33,1.52,126.2
"2016-03-26 01:05:00",1490461,6.85,173.4,7.571,1.427,7.218,100.5627,0.735,2.036,62.92,0,109.8,13.33,1.49,135.4
"2016-03-26 01:05:30",1490462,6.143,167.1,7.759,1.352,7.674,100.5624,0.735,2.097,63.03,0,109.8,13.33,1.49,129.1
"2016-03-26 01:06:00",1490463,5.903,164.8,7.301,1.367,7.31,100.5613,0.732,2.07,63.06,0,109.8,13.33,1.49,126.8
"2016-03-26 01:06:30",1490464,5.484,168,8.03,1.528,6.149,100.5627,0.735,1.912,63,0,109.8,13.33,1.49,130.0
"2016-03-26 01:07:00",1490465,4.523,163,6.763,1.149,4.857,100.5565,0.719,1.946,63.12,0,109.8,13.33,1.47,125.0
"2016-03-26 01:07:30",1490466,5.175,168.4,6.635,1.338,6.422,100.5452,0.691,1.923,63.23,0,109.8,13.33,1.45,130.4
"2016-03-26 01:08:00",1490467,4.965,170.1,8.17,1.238,6.614,100.5412,0.681,1.914,63.34,0,109.8,13.34,1.43,132.1
"2016-03-26 01:08:30",1490468,5.762,177.6,7.085,1.35,7.58,100.5356,0.666,2.002,63.54,0,109.8,13.34,1.42,139.6
"2016-03-26 01:09:00",1490469,6.184,178.2,7.081,1.304,7.479,100.5285,0.648,1.961,63.61,0,109.8,13.34,1.40,140.2
"2016-03-26 01:09:30",1490470,5.033,172.1,6.044,1.095,5.159,100.5268,0.644,1.896,63.56,0,109.8,13.34,1.40,134.1
"2016-03-26 01:10:00",1490471,5.791,181,6.894,1.417,6.396,100.5294,0.65,1.876,63.73,0,109.8,13.34,1.40,143.0
"2016-03-26 01:10:30",1490472,4.852,166.1,7.365,1.226,5.337,100.5328,0.659,1.893,63.84,0,109.8,13.34,1.41,128.1
"2016-03-26 01:11:00",1490473,5.281,170.8,9.58,1.32,7.458,100.5263,0.642,1.923,63.47,0,109.8,13.34,1.40,132.8
"2016-03-26 01:11:30",1490474,5.705,179.6,7.044,1.387,7.279,100.5189,0.624,1.933,63.65,0,109.8,13.34,1.38,141.6
"2016-03-26 01:12:00",1490475,5.759,180.1,6.985,1.278,7.71,100.5158,0.616,1.869,63.89,0,109.8,13.34,1.37,142.1
"2016-03-26 01:12:30",1490476,4.135,173.5,5.691,1.208,4.87,100.5127,0.608,1.778,63.92,0,109.7,13.34,1.36,135.5
"2016-03-26 01:13:00",1490477,4.072,176.4,11.99,1.225,5.424,100.5045,0.587,1.811,63.72,0,109.8,13.34,1.34,138.4
"2016-03-26 01:13:30",1490478,4.505,180.2,11.02,1.167,5.533,100.5028,0.582,1.789,63.64,0,109.7,13.34,1.34,142.2
"2016-03-26 01:14:00",1490479,5.586,179.4,8.44,1.375,7.387,100.5039,0.585,1.915,63.88,0,109.7,13.34,1.34,141.4
"2016-03-26 01:14:30",1490480,4.961,177.7,8.58,1.33,7.337,100.5022,0.581,1.889,63.81,0,109.7,13.34,1.34,139.7
"2016-03-26 01:15:00",1490481,4.772,177.7,6.998,1.273,6.002,100.5025,0.582,1.813,63.62,0,109.7,13.34,1.34,139.7
"2016-03-26 01:15:30",1490482,4.923,182.9,7.379,1.13,5.108,100.5022,0.581,1.782,63.66,0,109.7,13.34,1.34,144.9
"2016-03-26 01:16:00",1490483,5.414,186,7.728,1.355,6.172,100.5022,0.581,1.809,63.69,0,109.7,13.34,1.34,148.0
"2016-03-26 01:16:30",1490484,4.967,178.4,6.943,1.218,5.706,100.5036,0.585,1.725,63.76,0,109.7,13.35,1.34,140.4
"2016-03-26 01:17:00",1490485,5.91,183.5,7.654,1.349,7.322,100.5034,0.584,1.847,63.93,0,109.7,13.34,1.34,145.5
"2016-03-26 01:17:30",1490486,6.027,185.6,7.122,1.332,7.146,100.5036,0.585,1.827,63.92,0,109.7,13.34,1.34,147.6
"2016-03-26 01:18:00",1490487,6.028,193.3,8.07,1.314,6.74,100.5036,0.585,1.836,63.93,0,109.7,13.33,1.34,155.3
"2016-03-26 01:18:30",1490488,5.499,192.7,7.866,1.377,6.097,100.5054,0.589,1.736,63.91,0,109.7,13.33,1.34,154.7
"2016-03-26 01:19:00",1490489,5.098,186.1,5.108,1.108,4.883,100.5031,0.583,1.766,64.11,0,109.7,13.33,1.34,148.1
"2016-03-26 01:19:30",1490490,5.776,190.6,7.546,1.179,6.306,100.5006,0.577,1.675,64.25,0,109.7,13.34,1.33,152.6
"2016-03-26 01:20:00",1490491,6.567,193.4,7.001,1.332,7.555,100.4963,0.566,1.83,64.6,0,109.7,13.33,1.32,155.4
"2016-03-26 01:20:30",1490492,6.389,192.3,6.886,1.351,7.424,100.4909,0.552,1.83,64.75,0,109.7,13.34,1.31,154.3
"2016-03-26 01:21:00",1490493,6.264,187.5,6.807,1.259,7.173,100.4924,0.556,1.801,64.86,0,109.7,13.34,1.31,149.5
"2016-03-26 01:21:30",1490494,5.031,186.8,6.445,1.281,5.339,100.4898,0.549,1.741,64.67,0,109.7,13.33,1.30,148.8
"2016-03-26 01:22:00",1490495,5.83,189.7,7.627,1.396,6.564,100.4816,0.528,1.753,64.28,0,109.7,13.34,1.28,151.7
"2016-03-26 01:22:30",1490496,5.313,190.8,8.44,1.245,6.224,100.4774,0.518,1.749,64.17,0,109.7,13.35,1.27,152.8
"2016-03-26 01:23:00",1490497,5.742,196.6,7.388,1.339,7.299,100.4759,0.514,1.776,64.37,0,109.7,13.35,1.27,158.6
"2016-03-26 01:23:30",1490498,5.832,197.6,6.757,1.329,7.148,100.4754,0.513,1.771,64.39,0,109.7,13.35,1.27,159.6
"2016-03-26 01:24:00",1490499,5.882,191.6,7.44,1.417,6.31,100.4754,0.513,1.747,64.31,0,109.7,13.35,1.27,153.6
"2016-03-26 01:24:30",1490500,5.809,194.6,6.877,1.493,6.381,100.4754,0.513,1.769,64.39,0,109.7,13.35,1.27,156.6
"2016-03-26 01:25:00",1490501,5.459,190.5,5.058,1.518,6.081,100.4754,0.513,1.663,64.53,0,109.7,13.35,1.27,152.5
"2016-03-26 01:25:30",1490502,5.218,194.8,6.979,1.333,6.338,100.4754,0.513,1.728,64.69,0,109.7,13.35,1.27,156.8
"2016-03-26 01:26:00",1490503,5.5,194.4,7.592,1.332,7.249,100.4754,0.513,1.77,64.62,0,109.7,13.35,1.27,156.4
"2016-03-26 01:26:30",1490504,5.761,193.1,6.496,1.342,6.953,100.4751,0.512,1.77,64.42,0,109.7,13.35,1.27,155.1
"2016-03-26 01:27:00",1490505,5.588,194.6,6.869,1.381,6.281,100.4737,0.508,1.652,64.11,0,109.7,13.35,1.26,156.6
"2016-03-26 01:27:30",1490506,4.583,192.9,6.29,1.221,4.96,100.4689,0.496,1.683,63.93,0,109.7,13.35,1.25,154.9
"2016-03-26 01:28:00",1490507,5.073,195.1,7.693,1.353,6.615,100.4646,0.485,1.699,63.84,0,109.7,13.35,1.24,157.1
"2016-03-26 01:28:30",1490508,5.818,201.9,7.843,1.391,6.25,100.4632,0.482,1.709,63.89,0,109.7,13.35,1.24,163.9
"2016-03-26 01:29:00",1490509,5.931,202.1,7.023,1.331,7.409,100.4604,0.474,1.768,64.33,0,109.7,13.35,1.23,164.1
"2016-03-26 01:29:30",1490510,5.403,202.1,7.126,1.373,6.381,100.4581,0.469,1.666,64.47,0,109.7,13.35,1.22,164.1
"2016-03-26 01:30:00",1490511,5.058,202.1,6.743,1.379,5.706,100.4584,0.469,1.671,64.47,0,109.8,13.35,1.22,164.1
"2016-03-26 01:30:30",1490512,5.226,202.2,7.702,1.3,5.952,100.4581,0.469,1.728,64.31,0,109.7,13.35,1.22,164.2
"2016-03-26 01:31:00",1490513,5.556,201.6,6.19,1.305,6.768,100.4576,0.467,1.672,64.18,0,109.7,13.35,1.22,163.6
"2016-03-26 01:31:30",1490514,4.949,199.8,8.21,1.399,5.991,100.4561,0.464,1.703,64.21,0,109.7,13.35,1.22,161.8
"2016-03-26 01:32:00",1490515,5.792,205.4,7.77,1.337,6.951,100.4559,0.463,1.713,64.15,0,109.7,13.35,1.22,167.4
"2016-03-26 01:32:30",1490516,5.582,203,7.427,1.318,6.283,100.4516,0.452,1.683,64.08,0,109.7,13.36,1.21,165.0
"2016-03-26 01:33:00",1490517,5.926,203.2,8.1,1.467,6.1,100.4505,0.449,1.722,64.22,0,109.7,13.36,1.20,165.2
"2016-03-26 01:33:30",1490518,5.842,202,6.911,1.338,5.903,100.446,0.438,1.604,64.23,0,109.7,13.36,1.19,164.0
"2016-03-26 01:34:00",1490519,5.575,203.4,7.212,1.33,5.76,100.4463,0.438,1.715,64.39,0,109.7,13.35,1.19,165.4
"2016-03-26 01:34:30",1490520,5.957,206.4,6.518,1.328,7.44,100.4485,0.444,1.759,64.37,0,109.7,13.35,1.20,168.4
"2016-03-26 01:35:00",1490521,5.963,202.5,6.928,1.337,7.378,100.4471,0.44,1.735,64.04,0,109.7,13.35,1.19,164.5
"2016-03-26 01:35:30",1490522,5.676,202.3,6.326,1.327,6.507,100.4508,0.45,1.669,63.82,0,109.8,13.35,1.20,164.3
"2016-03-26 01:36:00",1490523,5.061,199.8,6.798,1.205,4.966,100.45,0.448,1.662,63.72,0,109.7,13.35,1.20,161.8
"2016-03-26 01:36:30",1490524,5.946,204.9,6.513,1.349,6.598,100.4511,0.451,1.681,63.71,0,109.7,13.35,1.20,166.9
"2016-03-26 01:37:00",1490525,5.746,200.8,6.518,1.328,6.399,100.4519,0.453,1.64,63.86,0,109.7,13.35,1.21,162.8
"2016-03-26 01:37:30",1490526,6.496,203.6,7.373,1.287,7.588,100.4548,0.46,1.753,64.03,0,109.7,13.35,1.21,165.6
"2016-03-26 01:38:00",1490527,6.282,200.4,7.532,1.359,6.855,100.4559,0.463,1.697,63.91,0,109.7,13.35,1.22,162.4
"2016-03-26 01:38:30",1490528,6.725,203.6,6.938,1.35,6.772,100.4573,0.467,1.754,63.88,0,109.7,13.35,1.22,165.6
"2016-03-26 01:39:00",1490529,6.659,202.6,8.08,1.34,6.339,100.4585,0.469,1.672,63.84,0,109.7,13.35,1.22,164.6
"2016-03-26 01:39:30",1490530,6.47,200.6,6.747,1.304,5.821,100.4593,0.472,1.718,63.8,0,109.7,13.35,1.23,162.6
"2016-03-26 01:40:00",1490531,7.135,205.8,7.228,1.308,7.19,100.4596,0.472,1.717,63.68,0,109.7,13.35,1.23,167.8
"2016-03-26 01:40:30",1490532,7.079,204.6,7.381,1.343,7.525,100.4588,0.47,1.703,63.5,0,109.7,13.35,1.22,166.6
"2016-03-26 01:41:00",1490533,7.392,204.4,6.773,1.314,7.382,100.4607,0.475,1.719,63.41,0,109.7,13.35,1.23,166.4
"2016-03-26 01:41:30",1490534,7.275,206.2,6.623,1.342,7.137,100.4622,0.479,1.735,63.32,0,109.7,13.35,1.23,168.2
"2016-03-26 01:42:00",1490535,6.751,205.3,6.951,1.374,6.673,100.461,0.476,1.669,63.3,0,109.7,13.35,1.23,167.3
"2016-03-26 01:42:30",1490536,6.771,206,7.145,1.342,6.137,100.4619,0.478,1.672,63.32,0,109.7,13.35,1.23,168.0
"2016-03-26 01:43:00",1490537,7.273,208.9,7.086,1.303,7.079,100.4613,0.477,1.671,63.34,0,109.7,13.35,1.23,170.9
"2016-03-26 01:43:30",1490538,6.957,207.5,7.201,1.288,7.279,100.4613,0.477,1.716,63.42,0,109.7,13.35,1.23,169.5
"2016-03-26 01:44:00",1490539,6.545,208,6.615,1.354,6.482,100.4627,0.48,1.685,63.38,0,109.7,13.35,1.23,170.0
"2016-03-26 01:44:30",1490540,6.673,208,6.74,1.357,6.846,100.465,0.486,1.727,63.41,0,109.7,13.35,1.24,170.0
"2016-03-26 01:45:00",1490541,6.492,205,7.197,1.341,6.119,100.4639,0.483,1.635,63.13,0,109.7,13.35,1.24,167.0
"2016-03-26 01:45:30",1490542,6.523,204.5,6.995,1.311,6.169,100.465,0.486,1.692,63.02,0,109.7,13.35,1.24,166.5
"2016-03-26 01:46:00",1490543,6.714,208.4,7.219,1.375,6.907,100.4639,0.483,1.687,62.92,0,109.7,13.35,1.24,170.4
"2016-03-26 01:46:30",1490544,6.906,211.4,7.029,1.329,7.29,100.4664,0.49,1.717,62.98,0,109.7,13.35,1.24,173.4
"2016-03-26 01:47:00",1490545,6.613,210.5,6.734,1.252,7.362,100.4667,0.491,1.712,63.01,0,109.7,13.35,1.24,172.5
"2016-03-26 01:47:30",1490546,6.554,210.3,6.692,1.278,7.426,100.4659,0.488,1.712,62.85,0,109.7,13.35,1.24,172.3